Weather History for Rock River, YT

Change the Weather History Date:

Wednesday, September 11, 2013

  Actual Average Record
Temperature  
Mean Temperature 49 °F -  
Max Temperature 56 °F - - ()
Min Temperature 42 °F - - ()
Degree Days  
Heating Degree Days 16    
Moisture  
Dew Point 38 °F    
Average Humidity 67    
Maximum Humidity 95    
Minimum Humidity 37    
Precipitation  
Precipitation 0.16 in - - ()
Sea Level Pressure  
Sea Level Pressure 29.76 in    
Wind  
Wind Speed 6 mph ()    
Max Wind Speed 17 mph    
Max Gust Speed 22 mph    
T = Trace of Precipitation, MM = Missing Value Source: Averaged Metar Reports

Daily Weather History Graph

Daily Weather History Graph

Search for Another Location

Airport:

Trip Planner

Search our weather history database for the weather conditions in past years. The results will help you decide how hot, cold, wet, or windy it might be!

Date:

Astronomy

Sep. 11, 2013 Rise Set
Actual Time 7:11 AM PDT 8:49 PM PDT
Civil Twilight 6:15 AM PDT 9:44 PM PDT
Nautical Twilight 4:59 AM PDT 10:59 PM PDT
Astronomical Twilight 2:53 AM PDT 12:55 AM PDT
Moon 5:00 PM PDT (9/11) 9:39 PM PDT (9/11)
Length of Visible Light 15h 29m
Length of Day
13h 37m
Waxing Crescent, 40% of the Moon is Illuminated
Sep 11
Waxing Crescent
Sep 12
First Quarter
Sep 19
Full
Sep 26
Last Quarter
Oct 4
New

Hourly Weather History & Observations

Time (PDT) Temp. Windchill Dew Point Humidity Pressure Visibility Wind Dir Wind Speed Gust Speed Precip Events Conditions
12:00 AM 48.0 °F - 35.6 °F 62% 29.85 in - SE 4.6 mph - N/A   Unknown
1:00 AM 47.8 °F - 35.6 °F 63% 29.84 in - SSE 4.6 mph - N/A   Unknown
2:00 AM 46.4 °F 42.9 °F 35.4 °F 66% 29.83 in - SE 6.9 mph - N/A   Unknown
3:00 AM 46.0 °F 43.9 °F 34.7 °F 65% 29.85 in - SE 4.6 mph - N/A   Unknown
4:00 AM 44.2 °F - 35.6 °F 72% 29.86 in - ESE 2.3 mph - N/A   Unknown
5:00 AM 44 °F - 35 °F 61% 29.86 in - SE 6.9 mph - -  
5:00 AM 44.1 °F 40.1 °F 34.9 °F 70% 29.86 in - SE 6.9 mph - N/A   Unknown
6:00 AM 43.2 °F 38.4 °F 34.7 °F 72% 29.86 in - SE 8.1 mph - N/A   Unknown
7:00 AM 44.8 °F 40.4 °F 36.0 °F 71% 29.84 in - ESE 8.1 mph - N/A   Unknown
8:00 AM 46.2 °F 42.2 °F 36.9 °F 70% 29.83 in - SE 8.1 mph - N/A   Unknown
9:00 AM 48.2 °F - 37.2 °F 66% 29.83 in - SE 4.6 mph - N/A   Unknown
10:00 AM 50.9 °F - 38.7 °F 63% 29.81 in - East 4.6 mph - N/A   Unknown
11:00 AM 54 °F - 35 °F 37% 29.78 in - Calm Calm - -  
11:00 AM 54.1 °F - 35.6 °F 50% 29.78 in - Calm Calm - N/A   Unknown
12:00 PM 55.4 °F - 38.3 °F 53% 29.77 in - SSE 3.5 mph - N/A   Unknown
1:00 PM 55.0 °F - 37.8 °F 52% 29.76 in - South 3.5 mph - N/A   Unknown
2:00 PM 55.8 °F - 36.3 °F 48% 29.73 in - East 15.0 mph - N/A   Unknown
3:00 PM 54.5 °F - 37.9 °F 54% 29.71 in - East 15.0 mph 21.9 mph N/A   Unknown
4:00 PM 54.1 °F - 37.9 °F 54% 29.69 in - East 17.3 mph - N/A   Unknown
5:00 PM 53 °F - 38 °F 47% 29.69 in - East 16.1 mph - -  
5:00 PM 53.1 °F - 38.5 °F 58% 29.69 in - East 15.0 mph 21.9 mph N/A   Unknown
6:00 PM 50.7 °F - 41.9 °F 72% 29.69 in - East 10.4 mph - N/A   Unknown
7:00 PM 48.9 °F - 44.2 °F 84% 29.68 in - ESE 6.9 mph - 0.04 in   Unknown
8:00 PM 49.1 °F - 44.6 °F 84% 29.65 in - East 8.1 mph - 0.03 in   Unknown
9:00 PM 48.0 °F - 45.0 °F 89% 29.65 in - ESE 9.2 mph - 0.01 in   Unknown
10:00 PM 46.4 °F 44.3 °F 44.6 °F 93% 29.63 in - South 4.6 mph - 0.02 in   Unknown
11:00 PM 47 °F - 46 °F 92% 29.61 in - SSE 5.8 mph - -  
11:00 PM 46.9 °F - 45.5 °F 95% 29.62 in - SSE 5.8 mph - 0.06 in   Unknown